| time (UTC) | temp F | wind direction | speed MPH | gust MPH | rain 1hr in | rain 24hr in | rain mn in | humidity % | barometer mb |
| 20260507124804 | 53 | 252 | 10.0 | 20.0 | 0.00 | 0.02 | 0.00 | 63 | 1017.6 |
| 20260507124305 | 54 | 272 | 9.0 | 20.0 | 0.00 | 0.02 | 0.00 | 64 | 1017.7 |
| 20260507123804 | 54 | 286 | 9.0 | 21.0 | 0.00 | 0.02 | 0.00 | 64 | 1017.6 |
| 20260507123304 | 54 | 263 | 7.0 | 20.0 | 0.00 | 0.02 | 0.00 | 64 | 1017.6 |
| 20260507122805 | 54 | 268 | 6.0 | 12.0 | 0.00 | 0.02 | 0.00 | 64 | 1017.6 |
| 20260507122307 | 54 | 273 | 7.0 | 16.0 | 0.00 | 0.02 | 0.00 | 64 | 1017.6 |
| 20260507121804 | 54 | 263 | 5.0 | 21.0 | 0.00 | 0.02 | 0.00 | 64 | 1017.7 |
| 20260507120804 | 54 | 264 | 6.0 | 17.0 | 0.00 | 0.02 | 0.00 | 64 | 1017.6 |
| 20260507120304 | 54 | 273 | 7.0 | 17.0 | 0.00 | 0.02 | 0.00 | 64 | 1017.5 |
| 20260507115803 | 54 | 296 | 7.0 | 18.0 | 0.00 | 0.02 | 0.00 | 64 | 1017.5 |
| 20260507115307 | 54 | 269 | 10.0 | 23.0 | 0.00 | 0.02 | 0.00 | 63 | 1017.6 |
| 20260507114802 | 54 | 279 | 6.0 | 15.0 | 0.00 | 0.02 | 0.00 | 64 | 1017.5 |
| 20260507114302 | 54 | 291 | 5.0 | 15.0 | 0.00 | 0.02 | 0.00 | 64 | 1017.5 |
| 20260507113802 | 54 | 288 | 7.0 | 18.0 | 0.00 | 0.02 | 0.00 | 63 | 1017.4 |
| 20260507113302 | 54 | 259 | 11.0 | 20.0 | 0.00 | 0.02 | 0.00 | 62 | 1017.4 |
| 20260507112306 | 54 | 276 | 8.0 | 24.0 | 0.00 | 0.02 | 0.00 | 64 | 1017.3 |
| 20260507111802 | 54 | 226 | 12.0 | 30.0 | 0.00 | 0.02 | 0.00 | 63 | 1017.3 |
| 20260507111302 | 54 | 230 | 9.0 | 21.0 | 0.00 | 0.02 | 0.00 | 63 | 1017.2 |
| 20260507110802 | 54 | 215 | 8.0 | 16.0 | 0.00 | 0.02 | 0.00 | 62 | 1017.0 |
| 20260507105802 | 54 | 303 | 7.0 | 21.0 | 0.00 | 0.02 | 0.00 | 64 | 1017.0 |
| 20260507105306 | 54 | 302 | 6.0 | 23.0 | 0.00 | 0.02 | 0.00 | 64 | 1016.9 |
| 20260507104802 | 54 | 193 | 6.0 | 22.0 | 0.00 | 0.02 | 0.00 | 64 | 1017.0 |
| 20260507104302 | 55 | 308 | 5.0 | 20.0 | 0.00 | 0.02 | 0.00 | 64 | 1016.9 |
| 20260507103802 | 55 | 247 | 12.0 | 28.0 | 0.00 | 0.02 | 0.00 | 61 | 1016.6 |
| 20260507103302 | 55 | 303 | 9.0 | 17.0 | 0.00 | 0.02 | 0.00 | 62 | 1016.5 |
| 20260507102802 | 55 | 266 | 9.0 | 16.0 | 0.00 | 0.02 | 0.00 | 63 | 1016.8 |
| 20260507102306 | 55 | 275 | 11.0 | 20.0 | 0.00 | 0.02 | 0.00 | 63 | 1016.8 |
| 20260507101802 | 55 | 271 | 12.0 | 20.0 | 0.00 | 0.02 | 0.00 | 62 | 1016.9 |
| 20260507101302 | 55 | 292 | 7.0 | 16.0 | 0.00 | 0.02 | 0.00 | 63 | 1016.9 |
| 20260507100802 | 55 | 244 | 9.0 | 21.0 | 0.00 | 0.02 | 0.00 | 62 | 1017.0 |
| 20260507100302 | 55 | 273 | 9.0 | 26.0 | 0.00 | 0.02 | 0.00 | 62 | 1016.8 |
| 20260507095802 | 56 | 261 | 14.0 | 23.0 | 0.00 | 0.02 | 0.00 | 60 | 1016.7 |
| 20260507095305 | 56 | 270 | 12.0 | 24.0 | 0.00 | 0.02 | 0.00 | 62 | 1016.7 |
| 20260507094802 | 56 | 278 | 10.0 | 23.0 | 0.00 | 0.02 | 0.00 | 61 | 1016.6 |
| 20260507094302 | 56 | 285 | 12.0 | 26.0 | 0.00 | 0.02 | 0.00 | 62 | 1016.7 |
| 20260507093802 | 56 | 250 | 11.0 | 22.0 | 0.00 | 0.02 | 0.00 | 61 | 1016.8 |
| 20260507092306 | 56 | 241 | 11.0 | 18.0 | 0.00 | 0.02 | 0.00 | 60 | 1016.7 |
| 20260507091802 | 56 | 288 | 7.0 | 20.0 | 0.00 | 0.02 | 0.00 | 62 | 1016.8 |
| 20260507091301 | 56 | 257 | 10.0 | 22.0 | 0.00 | 0.02 | 0.00 | 61 | 1016.8 |
| 20260507090802 | 57 | 232 | 10.0 | 26.0 | 0.00 | 0.02 | 0.00 | 61 | 1017.0 |
| 20260507090302 | 57 | 290 | 8.0 | 25.0 | 0.00 | 0.02 | 0.00 | 62 | 1016.9 |
| 20260507085802 | 57 | 274 | 7.0 | 22.0 | 0.00 | 0.02 | 0.00 | 61 | 1016.8 |
| 20260507085301 | 57 | 278 | 9.0 | 25.0 | 0.00 | 0.02 | 0.00 | 61 | 1016.8 |
| 20260507084802 | 57 | 247 | 9.0 | 20.0 | 0.00 | 0.02 | 0.00 | 61 | 1016.9 |
| 20260507084302 | 57 | 302 | 6.0 | 17.0 | 0.00 | 0.02 | 0.00 | 62 | 1017.0 |
| 20260507083802 | 57 | 286 | 5.0 | 17.0 | 0.00 | 0.02 | 0.00 | 62 | 1016.9 |
| 20260507083302 | 58 | 284 | 10.0 | 23.0 | 0.00 | 0.02 | 0.00 | 61 | 1016.9 |
| 20260507082802 | 57 | 252 | 10.0 | 23.0 | 0.00 | 0.02 | 0.00 | 60 | 1017.0 |
| 20260507081301 | 57 | 261 | 7.0 | 20.0 | 0.00 | 0.02 | 0.00 | 61 | 1016.8 |
| 20260507080802 | 57 | 230 | 9.0 | 24.0 | 0.00 | 0.02 | 0.00 | 62 | 1016.9 |
| 20260507080302 | 57 | 269 | 11.0 | 24.0 | 0.00 | 0.02 | 0.00 | 62 | 1016.8 |
| 20260507075802 | 57 | 275 | 7.0 | 21.0 | 0.00 | 0.02 | 0.00 | 63 | 1016.9 |
| 20260507075306 | 57 | 299 | 6.0 | 13.0 | 0.00 | 0.02 | 0.00 | 63 | 1016.9 |
| 20260507074802 | 57 | 264 | 10.0 | 25.0 | 0.00 | 0.02 | 0.00 | 62 | 1017.0 |
| 20260507074302 | 57 | 269 | 10.0 | 24.0 | 0.00 | 0.02 | 0.00 | 62 | 1017.0 |
| 20260507073802 | 57 | 283 | 8.0 | 16.0 | 0.00 | 0.02 | 0.00 | 62 | 1016.9 |
| 20260507072802 | 58 | 288 | 12.0 | 26.0 | 0.00 | 0.03 | 0.00 | 60 | 1016.8 |
| 20260507072306 | 58 | 263 | 11.0 | 24.0 | 0.00 | 0.03 | 0.00 | 61 | 1016.9 |
| 20260507071802 | 58 | 273 | 11.0 | 24.0 | 0.00 | 0.03 | 0.00 | 62 | 1016.9 |
| 20260507071302 | 58 | 252 | 12.0 | 22.0 | 0.00 | 0.03 | 0.00 | 60 | 1017.1 |
| 20260507070802 | 58 | 277 | 13.0 | 22.0 | 0.00 | 0.03 | 0.00 | 61 | 1017.0 |
| 20260507065802 | 58 | 275 | 14.0 | 28.0 | 0.00 | 0.03 | 0.03 | 59 | 1017.1 |
| 20260507065305 | 59 | 268 | 13.0 | 24.0 | 0.00 | 0.03 | 0.03 | 60 | 1017.1 |
| 20260507064802 | 59 | 273 | 13.0 | 25.0 | 0.00 | 0.03 | 0.03 | 59 | 1017.1 |
| 20260507064301 | 59 | 268 | 13.0 | 23.0 | 0.00 | 0.03 | 0.03 | 60 | 1017.2 |
| 20260507063302 | 59 | 269 | 11.0 | 23.0 | 0.00 | 0.03 | 0.03 | 60 | 1017.2 |
| 20260507062802 | 59 | 270 | 13.0 | 26.0 | 0.00 | 0.03 | 0.03 | 60 | 1017.1 |
| 20260507062305 | 59 | 260 | 11.0 | 23.0 | 0.00 | 0.03 | 0.03 | 62 | 1017.3 |
| 20260507061802 | 59 | 287 | 9.0 | 20.0 | 0.00 | 0.03 | 0.03 | 61 | 1017.3 |
| 20260507060301 | 60 | 261 | 12.0 | 22.0 | 0.00 | 0.03 | 0.03 | 61 | 1017.2 |
| 20260507055802 | 60 | 269 | 9.0 | 25.0 | 0.00 | 0.03 | 0.03 | 61 | 1017.2 |
| 20260507054802 | 60 | 281 | 11.0 | 23.0 | 0.00 | 0.03 | 0.03 | 60 | 1017.1 |
| 20260507054302 | 60 | 265 | 6.0 | 23.0 | 0.00 | 0.03 | 0.03 | 61 | 1017.3 |
| 20260507053802 | 60 | 260 | 9.0 | 23.0 | 0.00 | 0.03 | 0.03 | 60 | 1017.5 |
| 20260507053302 | 60 | 270 | 9.0 | 18.0 | 0.00 | 0.03 | 0.03 | 60 | 1017.3 |
| 20260507052301 | 61 | 301 | 6.0 | 23.0 | 0.00 | 0.03 | 0.03 | 60 | 1017.3 |
| 20260507051302 | 61 | 264 | 9.0 | 25.0 | 0.00 | 0.04 | 0.03 | 59 | 1017.3 |
| 20260507050802 | 61 | 276 | 9.0 | 22.0 | 0.00 | 0.04 | 0.03 | 59 | 1017.4 |
| 20260507050302 | 61 | 264 | 13.0 | 22.0 | 0.00 | 0.04 | 0.03 | 58 | 1017.2 |
| 20260507045302 | 62 | 255 | 10.0 | 24.0 | 0.00 | 0.04 | 0.03 | 58 | 1017.4 |
| 20260507044802 | 62 | 269 | 12.0 | 23.0 | 0.00 | 0.04 | 0.03 | 57 | 1017.3 |
| 20260507043801 | 62 | 274 | 12.0 | 26.0 | 0.00 | 0.04 | 0.03 | 58 | 1017.3 |
| 20260507042802 | 62 | 241 | 13.0 | 24.0 | 0.00 | 0.04 | 0.03 | 57 | 1017.2 |
| 20260507042302 | 62 | 290 | 9.0 | 21.0 | 0.00 | 0.04 | 0.03 | 57 | 1017.1 |
| 20260507041801 | 63 | 240 | 11.0 | 21.0 | 0.00 | 0.04 | 0.03 | 57 | 1017.2 |
| 20260507041302 | 63 | 231 | 9.0 | 18.0 | 0.00 | 0.04 | 0.03 | 56 | 1017.1 |
| 20260507040802 | 63 | 263 | 13.0 | 28.0 | 0.00 | 0.04 | 0.03 | 54 | 1017.1 |
| 20260507035802 | 63 | 265 | 11.0 | 24.0 | 0.00 | 0.04 | 0.03 | 57 | 1016.9 |
| 20260507035306 | 63 | 262 | 11.0 | 21.0 | 0.00 | 0.04 | 0.03 | 58 | 1016.9 |
| 20260507034802 | 63 | 276 | 10.0 | 21.0 | 0.00 | 0.04 | 0.03 | 58 | 1016.8 |
| 20260507033802 | 63 | 245 | 7.0 | 17.0 | 0.00 | 0.04 | 0.03 | 58 | 1016.8 |
| 20260507033302 | 63 | 259 | 10.0 | 23.0 | 0.00 | 0.04 | 0.03 | 56 | 1016.8 |
| 20260507032802 | 63 | 263 | 11.0 | 17.0 | 0.00 | 0.04 | 0.03 | 55 | 1016.8 |
| 20260507032301 | 63 | 269 | 12.0 | 26.0 | 0.00 | 0.04 | 0.03 | 53 | 1016.6 |
| 20260507031803 | 64 | 279 | 8.0 | 18.0 | 0.00 | 0.04 | 0.03 | 54 | 1016.6 |
| 20260507030802 | 64 | 265 | 9.0 | 24.0 | 0.00 | 0.05 | 0.03 | 54 | 1016.6 |
| 20260507030302 | 64 | 304 | 6.0 | 14.0 | 0.00 | 0.05 | 0.03 | 54 | 1016.5 |
| 20260507025301 | 64 | 283 | 9.0 | 24.0 | 0.00 | 0.05 | 0.03 | 52 | 1016.4 |
| 20260507024802 | 64 | 300 | 13.0 | 28.0 | 0.00 | 0.05 | 0.03 | 52 | 1016.3 |
| 20260507024302 | 65 | 284 | 13.0 | 30.0 | 0.00 | 0.05 | 0.03 | 52 | 1016.4 |
| 20260507023802 | 65 | 269 | 16.0 | 36.0 | 0.00 | 0.05 | 0.03 | 51 | 1016.3 |
| 20260507023302 | 65 | 271 | 14.0 | 29.0 | 0.00 | 0.05 | 0.03 | 51 | 1016.5 |
| 20260507022802 | 65 | 272 | 12.0 | 28.0 | 0.00 | 0.05 | 0.03 | 51 | 1016.3 |
| 20260507021801 | 65 | 267 | 17.0 | 30.0 | 0.00 | 0.05 | 0.03 | 51 | 1016.4 |
| 20260507021302 | 65 | 272 | 15.0 | 30.0 | 0.00 | 0.05 | 0.03 | 50 | 1016.3 |
| 20260507020802 | 65 | 278 | 13.0 | 24.0 | 0.00 | 0.05 | 0.03 | 50 | 1016.4 |
| 20260507020302 | 66 | 279 | 14.0 | 28.0 | 0.00 | 0.05 | 0.03 | 50 | 1016.3 |
| 20260507015305 | 66 | 276 | 14.0 | 29.0 | 0.00 | 0.05 | 0.03 | 49 | 1016.5 |
| 20260507014802 | 66 | 262 | 14.0 | 31.0 | 0.00 | 0.05 | 0.03 | 48 | 1016.4 |
| 20260507014301 | 66 | 269 | 13.0 | 33.0 | 0.00 | 0.05 | 0.03 | 48 | 1016.5 |
| 20260507013802 | 66 | 269 | 13.0 | 29.0 | 0.00 | 0.05 | 0.03 | 48 | 1016.5 |
| 20260507013301 | 66 | 291 | 13.0 | 31.0 | 0.00 | 0.05 | 0.03 | 48 | 1016.5 |
| 20260507012305 | 67 | 286 | 13.0 | 24.0 | 0.00 | 0.05 | 0.03 | 47 | 1016.6 |
| 20260507011802 | 67 | 262 | 11.0 | 24.0 | 0.00 | 0.05 | 0.03 | 47 | 1016.6 |
| 20260507010801 | 67 | 270 | 12.0 | 23.0 | 0.00 | 0.05 | 0.03 | 47 | 1016.6 |
| 20260507010301 | 67 | 258 | 10.0 | 21.0 | 0.00 | 0.05 | 0.03 | 47 | 1016.5 |
| 20260507005305 | 67 | 266 | 11.0 | 23.0 | 0.00 | 0.05 | 0.03 | 47 | 1016.6 |
| 20260507003804 | 67 | 271 | 12.0 | 25.0 | 0.00 | 0.05 | 0.03 | 47 | 1016.5 |
| 20260507003304 | 67 | 267 | 15.0 | 26.0 | 0.00 | 0.05 | 0.03 | 47 | 1016.5 |
| 20260507002804 | 67 | 296 | 12.0 | 24.0 | 0.00 | 0.05 | 0.03 | 46 | 1016.6 |
| 20260507002306 | 67 | 275 | 18.0 | 26.0 | 0.00 | 0.05 | 0.03 | 48 | 1016.5 |
| 20260507001803 | 67 | 266 | 12.0 | 22.0 | 0.00 | 0.06 | 0.03 | 47 | 1016.5 |
| 20260507001304 | 67 | 288 | 10.0 | 26.0 | 0.00 | 0.06 | 0.03 | 47 | 1016.4 |
| 20260507000803 | 67 | 265 | 14.0 | 28.0 | 0.00 | 0.06 | 0.03 | 47 | 1016.3 |
| 20260507000303 | 67 | 276 | 12.0 | 30.0 | 0.00 | 0.06 | 0.03 | 47 | 1016.3 |
| 20260506234803 | 65 | 282 | 13.0 | 28.0 | 0.00 | 0.06 | 0.03 | 48 | 1016.3 |
| 20260506234303 | 65 | 264 | 18.0 | 29.0 | 0.00 | 0.06 | 0.03 | 48 | 1016.2 |
| 20260506233804 | 65 | 270 | 15.0 | 28.0 | 0.00 | 0.05 | 0.03 | 49 | 1016.3 |
| 20260506233304 | 65 | 271 | 14.0 | 28.0 | 0.00 | 0.05 | 0.03 | 49 | 1016.3 |
| 20260506232804 | 65 | 282 | 16.0 | 29.0 | 0.00 | 0.05 | 0.03 | 49 | 1016.0 |
| 20260506232306 | 65 | 254 | 15.0 | 30.0 | 0.00 | 0.05 | 0.03 | 49 | 1016.3 |
| 20260506231804 | 65 | 273 | 17.0 | 28.0 | 0.00 | 0.05 | 0.03 | 50 | 1016.2 |
| 20260506231304 | 65 | 242 | 10.0 | 31.0 | 0.00 | 0.05 | 0.03 | 50 | 1016.3 |
| 20260506230303 | 65 | 247 | 17.0 | 31.0 | 0.00 | 0.06 | 0.03 | 51 | 1015.9 |
| 20260506225803 | 65 | 270 | 14.0 | 38.0 | 0.00 | 0.06 | 0.03 | 50 | 1015.9 |
| 20260506224304 | 65 | 286 | 17.0 | 28.0 | 0.00 | 0.05 | 0.03 | 50 | 1016.1 |
| 20260506223804 | 65 | 280 | 19.0 | 33.0 | 0.00 | 0.05 | 0.03 | 50 | 1016.1 |
| 20260506223304 | 65 | 271 | 15.0 | 33.0 | 0.00 | 0.05 | 0.03 | 50 | 1016.3 |
| 20260506222804 | 66 | 258 | 17.0 | 32.0 | 0.00 | 0.05 | 0.03 | 49 | 1016.3 |
| 20260506220803 | 66 | 278 | 12.0 | 30.0 | 0.00 | 0.06 | 0.03 | 50 | 1016.2 |
| 20260506220304 | 66 | 266 | 18.0 | 32.0 | 0.00 | 0.06 | 0.03 | 50 | 1016.1 |
| 20260506215804 | 66 | 274 | 18.0 | 41.0 | 0.00 | 0.06 | 0.03 | 49 | 1016.0 |
| 20260506215306 | 66 | 290 | 14.0 | 31.0 | 0.00 | 0.06 | 0.03 | 49 | 1016.0 |
| 20260506214803 | 66 | 267 | 17.0 | 35.0 | 0.00 | 0.06 | 0.03 | 50 | 1016.0 |
| 20260506214304 | 66 | 278 | 20.0 | 32.0 | 0.00 | 0.05 | 0.02 | 50 | 1016.1 |
| 20260506213804 | 66 | 261 | 20.0 | 32.0 | 0.00 | 0.05 | 0.02 | 50 | 1016.2 |
| 20260506213304 | 66 | 258 | 18.0 | 39.0 | 0.00 | 0.05 | 0.02 | 50 | 1016.3 |
| 20260506212804 | 66 | 277 | 18.0 | 35.0 | 0.00 | 0.05 | 0.02 | 50 | 1016.1 |
| 20260506211804 | 67 | 283 | 19.0 | 36.0 | 0.00 | 0.05 | 0.02 | 47 | 1016.2 |
| 20260506211304 | 67 | 291 | 11.0 | 29.0 | 0.00 | 0.05 | 0.02 | 46 | 1016.4 |
| 20260506210804 | 67 | 269 | 16.0 | 29.0 | 0.01 | 0.05 | 0.02 | 47 | 1016.3 |
| 20260506210303 | 67 | 278 | 16.0 | 36.0 | 0.01 | 0.05 | 0.02 | 49 | 1016.2 |
| 20260506205803 | 67 | 260 | 16.0 | 31.0 | 0.01 | 0.05 | 0.02 | 49 | 1016.4 |
| 20260506204803 | 66 | 271 | 17.0 | 28.0 | 0.01 | 0.05 | 0.02 | 47 | 1016.4 |
| 20260506204303 | 66 | 285 | 16.0 | 29.0 | 0.01 | 0.05 | 0.02 | 50 | 1016.4 |
| 20260506203803 | 66 | 289 | 16.0 | 32.0 | 0.01 | 0.05 | 0.02 | 48 | 1016.7 |
| 20260506202804 | 66 | 275 | 17.0 | 28.0 | 0.01 | 0.05 | 0.02 | 50 | 1016.3 |
| 20260506202306 | 66 | 289 | 15.0 | 35.0 | 0.01 | 0.05 | 0.02 | 49 | 1016.3 |
| 20260506201804 | 65 | 264 | 20.0 | 37.0 | 0.01 | 0.05 | 0.02 | 51 | 1016.4 |
| 20260506201304 | 65 | 279 | 14.0 | 35.0 | 0.00 | 0.05 | 0.02 | 50 | 1016.4 |
| 20260506200803 | 65 | 272 | 19.0 | 32.0 | 0.00 | 0.05 | 0.02 | 52 | 1016.4 |
| 20260506200304 | 65 | 270 | 17.0 | 33.0 | 0.00 | 0.05 | 0.02 | 52 | 1016.4 |
| 20260506195803 | 65 | 280 | 17.0 | 32.0 | 0.00 | 0.05 | 0.02 | 50 | 1016.5 |
| 20260506195305 | 65 | 282 | 16.0 | 32.0 | 0.00 | 0.05 | 0.01 | 52 | 1016.5 |
| 20260506194804 | 65 | 267 | 13.0 | 37.0 | 0.00 | 0.05 | 0.01 | 52 | 1016.5 |
| 20260506194304 | 65 | 284 | 14.0 | 26.0 | 0.00 | 0.05 | 0.01 | 52 | 1016.5 |
| 20260506193804 | 65 | 284 | 11.0 | 31.0 | 0.00 | 0.05 | 0.01 | 50 | 1016.6 |
| 20260506193304 | 65 | 300 | 14.0 | 28.0 | 0.00 | 0.05 | 0.01 | 52 | 1016.5 |
| 20260506192803 | 65 | 266 | 17.0 | 28.0 | 0.00 | 0.05 | 0.01 | 53 | 1016.6 |
| 20260506192305 | 65 | 284 | 13.0 | 36.0 | 0.00 | 0.05 | 0.01 | 50 | 1016.8 |
| 20260506191803 | 65 | 311 | 16.0 | 31.0 | 0.00 | 0.04 | 0.01 | 52 | 1016.3 |
| 20260506191304 | 65 | 263 | 12.0 | 25.0 | 0.00 | 0.04 | 0.01 | 52 | 1016.7 |
| 20260506190804 | 65 | 278 | 14.0 | 25.0 | 0.00 | 0.04 | 0.01 | 54 | 1016.6 |
| 20260506190303 | 64 | 287 | 14.0 | 25.0 | 0.00 | 0.04 | 0.01 | 54 | 1016.5 |
| 20260506185803 | 64 | 297 | 14.0 | 28.0 | 0.00 | 0.05 | 0.01 | 54 | 1016.3 |
| 20260506185306 | 64 | 289 | 17.0 | 29.0 | 0.00 | 0.05 | 0.01 | 54 | 1016.4 |
| 20260506184304 | 64 | 285 | 17.0 | 28.0 | 0.00 | 0.04 | 0.01 | 56 | 1016.3 |
| 20260506183804 | 64 | 286 | 19.0 | 32.0 | 0.00 | 0.04 | 0.01 | 56 | 1016.5 |
| 20260506182803 | 63 | 295 | 14.0 | 30.0 | 0.00 | 0.04 | 0.01 | 55 | 1016.5 |
| 20260506182306 | 63 | 290 | 12.0 | 25.0 | 0.00 | 0.04 | 0.01 | 56 | 1016.5 |
| 20260506181804 | 63 | 315 | 15.0 | 25.0 | 0.00 | 0.04 | 0.01 | 58 | 1016.7 |
| 20260506181303 | 63 | 288 | 13.0 | 24.0 | 0.00 | 0.04 | 0.01 | 56 | 1016.3 |
| 20260506180804 | 63 | 314 | 10.0 | 22.0 | 0.00 | 0.04 | 0.01 | 57 | 1016.3 |
| 20260506180303 | 62 | 312 | 13.0 | 20.0 | 0.00 | 0.04 | 0.01 | 57 | 1016.3 |
| 20260506175803 | 62 | 304 | 13.0 | 23.0 | 0.00 | 0.04 | 0.01 | 58 | 1016.5 |
| 20260506175306 | 62 | 302 | 19.0 | 35.0 | 0.00 | 0.04 | 0.01 | 58 | 1016.6 |
| 20260506174804 | 62 | 306 | 12.0 | 35.0 | 0.00 | 0.04 | 0.01 | 59 | 1016.6 |
| 20260506174303 | 62 | 263 | 13.0 | 33.0 | 0.00 | 0.04 | 0.01 | 59 | 1016.8 |
| 20260506173304 | 62 | 265 | 12.0 | 31.0 | 0.00 | 0.04 | 0.01 | 59 | 1016.8 |
| 20260506172803 | 62 | 280 | 13.0 | 32.0 | 0.00 | 0.04 | 0.01 | 60 | 1016.7 |
| 20260506172306 | 61 | 265 | 15.0 | 25.0 | 0.00 | 0.04 | 0.01 | 60 | 1016.8 |
| 20260506171304 | 61 | 281 | 16.0 | 28.0 | 0.00 | 0.04 | 0.01 | 60 | 1016.3 |
| 20260506170803 | 61 | 273 | 14.0 | 30.0 | 0.00 | 0.04 | 0.01 | 60 | 1016.8 |
| 20260506164303 | 61 | 272 | 7.0 | 15.0 | 0.00 | 0.04 | 0.01 | 61 | 1017.1 |
| 20260506163304 | 61 | 278 | 11.0 | 25.0 | 0.00 | 0.04 | 0.01 | 62 | 1017.0 |
| 20260506154804 | 60 | 261 | 17.0 | 29.0 | 0.00 | 0.04 | 0.01 | 61 | 1017.0 |
| 20260506154303 | 60 | 266 | 13.0 | 28.0 | 0.00 | 0.04 | 0.01 | 62 | 1016.9 |
| 20260506153804 | 60 | 279 | 15.0 | 28.0 | 0.00 | 0.04 | 0.01 | 62 | 1016.8 |
| 20260506153303 | 60 | 258 | 14.0 | 31.0 | 0.00 | 0.04 | 0.01 | 62 | 1016.9 |
| 20260506152803 | 60 | 277 | 15.0 | 26.0 | 0.00 | 0.04 | 0.01 | 61 | 1016.9 |
| 20260506145804 | 60 | 265 | 12.0 | 26.0 | 0.00 | 0.04 | 0.01 | 61 | 1016.6 |
| 20260506145314 | 60 | 264 | 12.0 | 25.0 | 0.00 | 0.04 | 0.01 | 61 | 1016.6 |
| 20260506144804 | 60 | 262 | 10.0 | 31.0 | 0.00 | 0.04 | 0.01 | 61 | 1016.6 |
| 20260506144303 | 60 | 254 | 14.0 | 25.0 | 0.00 | 0.04 | 0.01 | 61 | 1016.6 |
| 20260506143803 | 60 | 267 | 17.0 | 29.0 | 0.00 | 0.04 | 0.01 | 61 | 1016.5 |
| 20260506142804 | 60 | 274 | 12.0 | 29.0 | 0.00 | 0.04 | 0.01 | 62 | 1016.5 |
| 20260506141303 | 60 | 250 | 14.0 | 28.0 | 0.00 | 0.04 | 0.01 | 62 | 1016.7 |
| 20260506140804 | 60 | 297 | 10.0 | 25.0 | 0.00 | 0.04 | 0.01 | 63 | 1016.4 |
| 20260506140303 | 60 | 262 | 12.0 | 24.0 | 0.00 | 0.04 | 0.01 | 61 | 1016.6 |
| 20260506135803 | 60 | 274 | 12.0 | 25.0 | 0.00 | 0.04 | 0.01 | 62 | 1016.6 |
| 20260506135306 | 59 | 252 | 12.0 | 25.0 | 0.00 | 0.04 | 0.01 | 62 | 1016.6 |
| 20260506134803 | 59 | 281 | 10.0 | 23.0 | 0.00 | 0.04 | 0.01 | 64 | 1016.5 |
| 20260506133304 | 59 | 299 | 9.0 | 20.0 | 0.00 | 0.04 | 0.01 | 62 | 1016.3 |
| 20260506132804 | 59 | 221 | 7.0 | 16.0 | 0.00 | 0.04 | 0.01 | 63 | 1016.5 |
| 20260506131804 | 60 | 298 | 11.0 | 25.0 | 0.00 | 0.04 | 0.01 | 63 | 1016.3 |
| 20260506131304 | 59 | 248 | 10.0 | 23.0 | 0.00 | 0.04 | 0.01 | 63 | 1016.2 |
| 20260506130803 | 59 | 298 | 7.0 | 24.0 | 0.00 | 0.04 | 0.01 | 64 | 1016.2 |
| 20260506130304 | 59 | 249 | 7.0 | 18.0 | 0.00 | 0.04 | 0.01 | 64 | 1016.0 |
| 20260506125305 | 59 | 223 | 8.0 | 18.0 | 0.00 | 0.04 | 0.01 | 64 | 1016.0 |